Location: Unspecified
(52.4292°N, 19.3359°E)
Time: 23:07:23
(UTC+02:00)

Transit 2A Rocket - Pass Details

Date: 23 May 2024
Orbit: 583 x 910 km, 66.7° (Epoch: 12 June)

Event Time Altitude Azimuth Distance (km) Brightness Sun altitude
Rises 08:14:13 0° 291° (WNW) 3,192 7.7 30.6°
Reaches altitude 10° 08:17:14 10° 310° (NW) 2,334 7.2 31.1°
Maximum altitude 08:21:02 19° 355° (N) 1,856 7.0 31.6°
Drops below altitude 10° 08:25:03 10° 39° (NE) 2,482 8.2 32.2°
Sets 08:28:23 0° 57° (ENE) 3,469 9.0 32.8°
